SCP
0 0 0 0 0 0 0 0 0 1 2 3 3 4 3 2 2 2 2 2 2 1 1 1 1 0 1 0 0 0 0 0 0 0 0 0 0 0 0 0 0 0 0
0 0 0 0 0 0 0 0 0 1 3 4 4 5 5 4 3 3 2 2 2 1 1 1 2 2 1 1 0 0 0 0 0 0 0 0 0 0 0 0 0 0 0
0 0 0 0 0 0 0 0 0 0 2 4 2 1 2 2 3 3 3 3 3 3 3 4 2 2 1 4 0 0 0 0 0 0 0 0 0 0 0 0 0 0 0
0 0 0 0 0 0 0 0 0 0 1 2 3 3 5 5 3 3 3 3 2 3 2 3 3 1 1 0 0 1 0 0 1 0 0 0 0 0 0 0 0 0 0
0 0 0 0 0 0 0 0 0 0 0 1 2 2 2 1 0 0 1 2 2 2 1 1 1 1 0 0 0 0 0 2 2 1 0 0 1 0 0 1 0 0 0
0 0 0 0 0 0 0 0 0 0 0 0 0 0 0 0 0 0 0 0 0 2 2 2 2 1 1 0 0 0 0 1 1 0 0 1 0 0 0 0 0 0 0
-0 -0 0 0 0 0 0 0 0 0 0 0 0 0 0 0 0 0 0 0 0 0 1 2 2 3 2 1 1 1 1 0 0 0 0 1 0 0 0 0 0 0 0
0 0 0 -0 0 0 0 0 0 0 0 0 0 0 0 0 0 0 0 0 0 0 0 0 0 2 2 2 1 1 0 0 0 0 1 1 0 0 0 0 1 0 0
0 0 0 0 0 0 0 0 0 0 0 0 0 0 0 0 0 0 0 0 0 0 0 0 0 0 2 2 2 2 1 1 1 1 1 1 1 1 0 0 0 0 0
0 0 0 0 0 0 0 0 0 0 0 0 0 0 0 0 0 0 0 0 0 0 0 0 1 1 1 1 2 2 2 2 1 1 1 1 1 1 1 1 0 0 0
0 0 0 0 0 0 0 -0 0 0 0 0 0 0 0 0 0 0 0 0 0 0 0 0 0 1 1 1 1 1 1 1 1 1 1 1 0 1 1 1 1 1 1
0 0 0 0 0 0 0 0 0 0 0 0 0 0 0 0 0 0 0 0 0 0 0 0 0 0 0 0 0 0 0 1 1 1 1 0 1 1 0 0 0 0 1
0 0 0 0 0 0 0 -0 0 0 0 0 0 0 0 0 0 0 0 0 0 0 0 0 0 0 0 0 0 0 0 0 0 0 0 0 0 0 0 0 0 0 0
0 0 0 0 0 0 0 0 0 0 0 0 0 0 0 0 0 0 0 0 0 0 0 0 0 0 0 0 0 0 0 0 0 0 0 0 0 0 0 0 0 0 0
0 0 0 0 0 0 0 0 0 0 0 0 0 0 0 0 0 0 0 0 0 0 0 0 0 0 0 0 0 0 0 0 0 0 0 0 0 0 0 0 0 0 0
0 0 0 0 0 0 0 0 0 0 0 0 0 0 0 0 0 0 0 0 0 0 0 0 0 0 0 0 0 0 0 0 0 0 0 0 0 0 0 0 -0 0 0
0 -0 -0 -0 -0 -0 0 0 0 0 0 0 0 0 0 0 0 0 0 0 0 0 0 0 0 0 0 0 0 0 0 0 0 0 -0 -0 -0 -0 0 0 0 0 0
0 -0 -0 -0 -0 -0 -0 -0 0 0 0 0 0 0 0 0 0 0 0 0 0 0 0 0 0 0 0 0 0 0 0 0 0 0 -0 -0 -0 -0 -0 0 0 0 0
0 0 -0 -0 -0 -0 -0 -0 -0 0 0 0 0 0 0 0 0 0 0 0 0 0 0 0 0 0 0 0 0 0 0 0 0 0 0 -0 -0 0 -0 0 0 0 0
0 0 -0 -0 -0 -0 0 0 0 0 0 0 0 0 0 0 0 0 0 0 0 0 0 0 0 0 0 0 0 0 0 0 0 0 0 -0 -0 0 0 0 0 0 0
0 0 0 0 0 0 0 0 0 0 0 0 0 0 0 0 0 0 0 0 0 0 0 0 0 0 0 0 0 0 0 0 0 0 0 -0 -0 -0 0 0 0 0 0
0 0 0 0 0 0 0 0 0 0 0 0 0 0 0 0 0 0 0 0 0 0 0 0 0 0 0 0 0 0 0 0 0 0 0 -0 -0 -0 0 0 0 0 0
0 0 0 0 -0 0 0 -0 0 0 0 0 0 0 0 0 0 0 0 0 0 0 0 0 0 0 0 0 0 0 0 0 0 0 -0 -0 -0 0 0 0 0 0 0
0 0 -0 -0 0 0 -0 -0 -0 0 0 0 0 0 0 0 0 0 0 0 0 0 0 0 0 0 0 0 0 0 0 0 0 0 -0 -0 -0 0 0 0 0 0 0
0 0 -0 0 0 -0 0 -0 -0 0 -0 0 0 0 0 0 0 0 0 0 0 0 0 0 0 0 0 0 0 0 0 0 0 0 0 -0 0 0 0 0 0 0 0
-0 -0 -0 -0 -0 -0 -0 -0 -0 -0 -0 0 0 0 0 0 0 0 0 0 0 0 0 0 0 0 0 0 0 0 0 0 0 0 0 0 0 0 0 0 0 0 0
Wind_Speed_500mb
29 23 31 41 50 54 60 66 66 65 58 61 63 70 72 70 65 62 60 64 60 73 74 67 71 69 63 58 50 53 45 42 41 47 53 48 49 41 37 40 39 29 17
44 42 32 31 37 52 59 69 73 75 73 69 69 70 73 75 64 58 65 58 46 61 74 73 60 64 62 55 45 43 45 45 40 40 52 47 42 34 16 17 22 24 21
49 54 54 49 44 44 46 49 59 75 84 80 76 74 77 69 61 59 60 68 65 64 64 83 69 55 69 73 79 46 30 51 43 39 47 24 14 18 20 32 31 17 26
46 47 52 52 45 50 51 56 61 64 79 81 76 75 75 78 73 71 71 70 68 69 75 74 76 77 86 70 79 60 44 48 42 44 59 50 50 35 43 52 36 40 42
43 47 47 48 51 45 47 54 67 72 76 76 75 73 74 74 71 67 57 57 52 54 67 70 66 54 91 88 99 114 107 58 43 53 47 39 38 43 40 57 53 46 46
53 63 66 60 56 59 66 68 71 82 78 77 77 76 77 70 69 68 67 67 60 59 62 61 57 52 54 57 59 85 80 95 59 56 53 55 62 59 47 45 54 65 63
56 63 61 67 69 68 74 77 77 90 86 80 74 68 61 52 42 35 34 37 43 54 63 68 68 62 62 55 48 62 71 82 79 90 120 82 69 59 62 52 57 61 72
62 67 70 68 63 61 66 68 67 88 86 77 59 47 38 35 33 30 28 31 38 43 41 45 50 56 59 58 57 59 64 63 82 91 98 72 82 69 66 74 65 59 69
67 75 72 62 61 50 48 51 58 74 61 51 44 35 31 21 19 20 27 33 30 34 39 39 40 41 43 54 58 62 62 63 69 65 60 64 74 77 77 74 79 78 54
80 72 57 47 42 40 26 32 50 53 50 43 36 35 28 24 19 17 20 30 33 33 31 28 30 35 38 39 39 40 45 46 47 48 53 54 57 67 72 69 77 71 73
64 64 48 40 34 37 30 41 43 35 38 38 42 41 36 29 25 23 22 20 25 28 32 34 33 35 33 30 31 35 38 44 46 45 51 58 58 57 56 60 64 77 77
57 54 46 30 31 23 11 22 31 49 53 50 51 42 43 45 41 35 32 27 26 24 30 32 35 31 29 30 35 37 39 42 46 50 54 58 53 60 62 57 56 51 47
53 51 46 32 36 43 46 39 45 42 47 64 71 69 62 67 53 48 42 38 37 35 39 37 36 31 28 27 27 31 35 38 41 47 54 56 57 52 55 52 46 45 51
48 43 37 39 37 32 34 38 43 27 27 32 56 77 78 74 67 62 55 53 51 47 43 41 33 28 21 18 18 19 25 30 32 34 37 46 51 54 54 51 50 39 48
47 37 40 49 50 46 33 32 38 40 36 39 42 41 51 71 79 73 67 63 66 59 48 46 31 30 27 21 17 17 20 24 30 33 35 36 41 53 54 57 57 48 46
44 45 52 62 68 64 57 49 38 33 36 40 43 45 47 44 63 70 73 73 74 73 60 57 50 43 41 37 32 30 29 33 36 38 42 43 46 45 50 52 61 56 54
46 67 77 85 87 89 80 66 59 50 45 43 41 42 48 52 59 60 60 70 79 79 79 71 64 57 52 49 45 44 44 42 41 41 45 50 53 53 49 50 51 58 56
68 83 88 97 103 102 94 83 71 66 56 54 49 47 46 43 43 44 57 65 67 78 81 79 78 71 63 57 54 53 53 52 48 46 46 52 57 55 51 48 51 51 54
76 83 90 97 95 86 89 90 86 75 70 61 57 53 55 55 57 55 49 44 47 52 58 65 77 83 75 66 64 59 63 64 58 52 52 56 61 57 47 46 47 49 51
74 83 87 85 84 84 78 76 77 82 81 77 68 64 58 56 57 54 49 47 51 54 58 58 60 64 71 74 72 66 66 71 69 59 60 61 64 63 50 41 42 50 49
75 80 90 84 80 82 81 92 93 89 77 80 78 72 71 70 67 69 67 64 62 60 61 63 69 74 76 74 69 65 65 69 70 67 68 69 70 69 54 41 47 54 49
89 81 95 86 76 78 77 75 80 78 77 78 78 85 84 83 83 82 83 79 76 77 78 77 80 86 85 81 80 74 69 65 69 71 69 72 74 73 54 47 49 52 47
83 78 84 81 80 76 76 81 78 66 70 70 72 78 84 88 87 87 88 89 89 90 93 93 96 103 103 98 94 82 75 69 68 71 71 73 80 69 53 44 43 40 31
87 76 78 84 75 80 73 72 68 68 76 82 77 72 73 80 91 93 90 83 83 85 93 98 97 87 89 102 96 83 72 70 67 68 73 75 76 56 52 43 36 27 31
71 88 78 80 80 78 76 74 73 69 72 72 71 70 69 69 70 72 77 80 85 85 84 84 81 75 75 82 79 78 74 73 67 69 72 73 60 55 49 43 36 35 42
92 82 86 79 77 80 75 65 64 65 66 71 71 72 72 74 77 78 80 82 82 81 80 80 79 75 74 68 72 72 77 77 67 74 68 60 53 49 46 44 47 44 39
Wind_Direction_500mb
328 308 268 253 252 249 239 234 235 236 233 231 233 236 238 241 235 233 224 232 238 240 259 248 245 249 248 252 256 266 268 271 275 284 284 283 282 276 286 295 284 279 282
306 301 299 290 273 256 248 240 240 236 235 238 236 237 242 240 237 230 227 237 240 252 242 255 245 244 241 246 258 274 272 278 283 288 291 298 285 267 286 337 309 276 262
306 300 290 287 279 273 269 270 260 244 238 239 233 233 237 239 235 233 234 240 240 242 247 252 251 249 261 233 250 252 282 284 290 291 285 285 265 293 268 306 320 300 287
302 296 296 289 279 270 268 264 261 250 238 235 235 234 237 232 237 240 240 240 244 245 243 247 246 253 265 249 227 246 269 285 293 296 280 272 265 286 299 292 303 309 312
309 305 299 288 278 277 272 268 262 246 234 233 234 234 234 235 243 248 241 232 236 240 239 248 256 242 241 254 252 244 253 260 270 273 281 289 283 280 284 291 297 295 307
322 307 299 289 284 281 282 278 256 245 231 224 225 226 230 233 235 238 235 234 239 236 235 237 238 240 245 257 260 242 235 241 245 249 265 288 286 295 290 283 293 295 301
338 339 313 291 282 283 283 276 252 235 224 221 218 218 220 218 220 224 229 230 232 234 236 234 240 244 240 248 250 233 237 234 242 246 258 275 279 283 288 282 290 296 301
347 340 330 314 289 279 279 275 249 225 218 211 208 207 214 222 232 248 259 261 255 251 241 233 235 238 239 240 238 231 240 244 236 259 254 264 277 281 274 277 279 292 295
332 332 328 312 302 290 290 271 240 209 207 200 196 209 218 235 265 273 285 274 262 251 244 237 233 230 227 227 229 232 240 246 250 255 268 267 268 280 276 273 272 273 274
324 324 322 311 303 294 270 227 197 190 199 209 212 213 222 242 239 264 290 273 255 246 239 229 215 213 212 213 213 216 224 232 248 263 273 276 278 284 284 275 266 270 271
324 323 317 302 287 286 286 226 210 219 220 217 213 218 227 224 231 250 261 252 252 249 247 241 235 233 230 227 228 235 243 248 254 259 264 271 274 274 278 281 274 267 268
335 332 323 302 281 271 244 266 260 242 232 221 234 232 239 235 227 235 246 236 243 248 249 260 256 251 251 253 258 260 258 258 261 266 267 265 268 272 275 281 279 288 276
347 353 347 321 296 285 289 295 269 268 258 246 237 242 230 237 236 242 240 235 243 249 249 257 256 259 261 264 266 270 269 267 267 269 273 277 273 271 272 273 279 277 273
342 347 352 1 351 335 308 279 277 279 277 272 245 247 245 244 240 241 244 241 243 249 253 256 251 256 250 253 267 278 269 264 270 278 281 277 274 273 269 266 268 275 276
326 328 337 339 336 335 332 320 294 281 277 274 271 265 254 249 247 241 241 244 242 247 253 251 241 241 251 266 280 299 282 284 286 289 294 298 291 274 272 269 271 268 273
314 311 314 317 318 321 319 314 310 299 284 272 269 269 266 260 248 242 242 241 244 244 248 247 240 247 254 265 275 284 289 296 293 296 299 304 305 295 270 265 263 261 267
317 316 314 313 313 311 308 304 298 293 286 281 269 264 258 256 254 249 248 248 247 245 243 245 244 245 254 260 265 279 284 288 292 298 307 308 310 309 292 266 266 256 256
306 306 308 308 305 302 300 297 290 285 285 276 268 263 255 248 249 245 242 246 247 244 241 245 248 249 252 258 264 272 274 278 284 294 304 310 310 309 299 282 272 263 264
300 304 302 299 300 296 293 291 287 283 280 271 271 270 263 260 260 253 249 241 240 241 245 249 252 251 252 256 261 267 271 273 275 286 294 306 311 313 298 283 279 272 264
300 302 299 293 291 293 288 281 284 285 277 272 269 260 258 264 261 257 253 251 251 252 251 249 248 250 252 255 259 260 269 268 271 277 288 299 312 313 299 278 278 273 270
297 294 301 286 287 291 277 276 279 272 272 274 270 265 260 260 260 260 259 258 261 263 261 258 255 255 252 251 252 258 264 264 266 274 284 293 308 311 298 275 269 273 275
303 295 301 286 286 286 282 277 274 274 273 270 270 271 266 264 264 266 266 267 266 265 265 264 263 263 261 261 260 260 257 261 259 270 281 290 302 304 289 267 267 267 258
291 299 300 285 289 283 281 279 274 272 275 275 271 268 266 263 263 263 264 265 266 265 266 266 266 264 262 261 263 262 257 254 253 267 277 286 297 294 278 261 267 265 236
289 301 296 295 280 289 284 275 273 271 272 269 267 268 265 263 263 262 261 259 256 255 260 260 259 257 259 261 256 250 245 245 249 264 272 284 290 275 266 255 260 209 201
288 304 292 290 282 294 285 277 275 272 270 269 264 262 262 263 265 262 258 255 255 252 250 251 253 247 248 255 257 246 242 245 252 261 276 282 269 266 252 244 229 204 209
303 291 302 287 288 291 289 283 276 274 269 268 267 264 262 258 256 256 258 259 256 256 253 251 250 249 254 248 254 253 249 250 252 260 266 256 261 253 243 239 199 204 199
Wind_Speed_850mb
29 23 31 41 50 54 60 66 66 65 58 61 63 70 72 70 65 62 60 64 60 73 74 67 71 69 63 58 50 53 45 42 41 47 53 48 49 41 37 40 39 29 17
44 42 32 31 37 52 59 69 73 75 73 69 69 70 73 75 64 58 65 58 46 61 74 73 60 64 62 55 45 43 45 45 40 40 52 47 42 34 16 17 22 24 21
49 54 54 49 44 44 46 49 59 75 84 80 76 74 77 69 61 59 60 68 65 64 64 83 69 55 69 73 79 46 30 51 43 39 47 24 14 18 20 32 31 17 26
46 47 52 52 45 50 51 56 61 64 79 81 76 75 75 78 73 71 71 70 68 69 75 74 76 77 86 70 79 60 44 48 42 44 59 50 50 35 43 52 36 40 42
43 47 47 48 51 45 47 54 67 72 76 76 75 73 74 74 71 67 57 57 52 54 67 70 66 54 91 88 99 114 107 58 43 53 47 39 38 43 40 57 53 46 46
53 63 66 60 56 59 66 68 71 82 78 77 77 76 77 70 69 68 67 67 60 59 62 61 57 52 54 57 59 85 80 95 59 56 53 55 62 59 47 45 54 65 63
56 63 61 67 69 68 74 77 77 90 86 80 74 68 61 52 42 35 34 37 43 54 63 68 68 62 62 55 48 62 71 82 79 90 120 82 69 59 62 52 57 61 72
62 67 70 68 63 61 66 68 67 88 86 77 59 47 38 35 33 30 28 31 38 43 41 45 50 56 59 58 57 59 64 63 82 91 98 72 82 69 66 74 65 59 69
67 75 72 62 61 50 48 51 58 74 61 51 44 35 31 21 19 20 27 33 30 34 39 39 40 41 43 54 58 62 62 63 69 65 60 64 74 77 77 74 79 78 54
80 72 57 47 42 40 26 32 50 53 50 43 36 35 28 24 19 17 20 30 33 33 31 28 30 35 38 39 39 40 45 46 47 48 53 54 57 67 72 69 77 71 73
64 64 48 40 34 37 30 41 43 35 38 38 42 41 36 29 25 23 22 20 25 28 32 34 33 35 33 30 31 35 38 44 46 45 51 58 58 57 56 60 64 77 77
57 54 46 30 31 23 11 22 31 49 53 50 51 42 43 45 41 35 32 27 26 24 30 32 35 31 29 30 35 37 39 42 46 50 54 58 53 60 62 57 56 51 47
53 51 46 32 36 43 46 39 45 42 47 64 71 69 62 67 53 48 42 38 37 35 39 37 36 31 28 27 27 31 35 38 41 47 54 56 57 52 55 52 46 45 51
48 43 37 39 37 32 34 38 43 27 27 32 56 77 78 74 67 62 55 53 51 47 43 41 33 28 21 18 18 19 25 30 32 34 37 46 51 54 54 51 50 39 48
47 37 40 49 50 46 33 32 38 40 36 39 42 41 51 71 79 73 67 63 66 59 48 46 31 30 27 21 17 17 20 24 30 33 35 36 41 53 54 57 57 48 46
44 45 52 62 68 64 57 49 38 33 36 40 43 45 47 44 63 70 73 73 74 73 60 57 50 43 41 37 32 30 29 33 36 38 42 43 46 45 50 52 61 56 54
46 67 77 85 87 89 80 66 59 50 45 43 41 42 48 52 59 60 60 70 79 79 79 71 64 57 52 49 45 44 44 42 41 41 45 50 53 53 49 50 51 58 56
68 83 88 97 103 102 94 83 71 66 56 54 49 47 46 43 43 44 57 65 67 78 81 79 78 71 63 57 54 53 53 52 48 46 46 52 57 55 51 48 51 51 54
76 83 90 97 95 86 89 90 86 75 70 61 57 53 55 55 57 55 49 44 47 52 58 65 77 83 75 66 64 59 63 64 58 52 52 56 61 57 47 46 47 49 51
74 83 87 85 84 84 78 76 77 82 81 77 68 64 58 56 57 54 49 47 51 54 58 58 60 64 71 74 72 66 66 71 69 59 60 61 64 63 50 41 42 50 49
75 80 90 84 80 82 81 92 93 89 77 80 78 72 71 70 67 69 67 64 62 60 61 63 69 74 76 74 69 65 65 69 70 67 68 69 70 69 54 41 47 54 49
89 81 95 86 76 78 77 75 80 78 77 78 78 85 84 83 83 82 83 79 76 77 78 77 80 86 85 81 80 74 69 65 69 71 69 72 74 73 54 47 49 52 47
83 78 84 81 80 76 76 81 78 66 70 70 72 78 84 88 87 87 88 89 89 90 93 93 96 103 103 98 94 82 75 69 68 71 71 73 80 69 53 44 43 40 31
87 76 78 84 75 80 73 72 68 68 76 82 77 72 73 80 91 93 90 83 83 85 93 98 97 87 89 102 96 83 72 70 67 68 73 75 76 56 52 43 36 27 31
71 88 78 80 80 78 76 74 73 69 72 72 71 70 69 69 70 72 77 80 85 85 84 84 81 75 75 82 79 78 74 73 67 69 72 73 60 55 49 43 36 35 42
92 82 86 79 77 80 75 65 64 65 66 71 71 72 72 74 77 78 80 82 82 81 80 80 79 75 74 68 72 72 77 77 67 74 68 60 53 49 46 44 47 44 39
Wind_Direction_850mb
328 308 268 253 252 249 239 234 235 236 233 231 233 236 238 241 235 233 224 232 238 240 259 248 245 249 248 252 256 266 268 271 275 284 284 283 282 276 286 295 284 279 282
306 301 299 290 273 256 248 240 240 236 235 238 236 237 242 240 237 230 227 237 240 252 242 255 245 244 241 246 258 274 272 278 283 288 291 298 285 267 286 337 309 276 262
306 300 290 287 279 273 269 270 260 244 238 239 233 233 237 239 235 233 234 240 240 242 247 252 251 249 261 233 250 252 282 284 290 291 285 285 265 293 268 306 320 300 287
302 296 296 289 279 270 268 264 261 250 238 235 235 234 237 232 237 240 240 240 244 245 243 247 246 253 265 249 227 246 269 285 293 296 280 272 265 286 299 292 303 309 312
309 305 299 288 278 277 272 268 262 246 234 233 234 234 234 235 243 248 241 232 236 240 239 248 256 242 241 254 252 244 253 260 270 273 281 289 283 280 284 291 297 295 307
322 307 299 289 284 281 282 278 256 245 231 224 225 226 230 233 235 238 235 234 239 236 235 237 238 240 245 257 260 242 235 241 245 249 265 288 286 295 290 283 293 295 301
338 339 313 291 282 283 283 276 252 235 224 221 218 218 220 218 220 224 229 230 232 234 236 234 240 244 240 248 250 233 237 234 242 246 258 275 279 283 288 282 290 296 301
347 340 330 314 289 279 279 275 249 225 218 211 208 207 214 222 232 248 259 261 255 251 241 233 235 238 239 240 238 231 240 244 236 259 254 264 277 281 274 277 279 292 295
332 332 328 312 302 290 290 271 240 209 207 200 196 209 218 235 265 273 285 274 262 251 244 237 233 230 227 227 229 232 240 246 250 255 268 267 268 280 276 273 272 273 274
324 324 322 311 303 294 270 227 197 190 199 209 212 213 222 242 239 264 290 273 255 246 239 229 215 213 212 213 213 216 224 232 248 263 273 276 278 284 284 275 266 270 271
324 323 317 302 287 286 286 226 210 219 220 217 213 218 227 224 231 250 261 252 252 249 247 241 235 233 230 227 228 235 243 248 254 259 264 271 274 274 278 281 274 267 268
335 332 323 302 281 271 244 266 260 242 232 221 234 232 239 235 227 235 246 236 243 248 249 260 256 251 251 253 258 260 258 258 261 266 267 265 268 272 275 281 279 288 276
347 353 347 321 296 285 289 295 269 268 258 246 237 242 230 237 236 242 240 235 243 249 249 257 256 259 261 264 266 270 269 267 267 269 273 277 273 271 272 273 279 277 273
342 347 352 1 351 335 308 279 277 279 277 272 245 247 245 244 240 241 244 241 243 249 253 256 251 256 250 253 267 278 269 264 270 278 281 277 274 273 269 266 268 275 276
326 328 337 339 336 335 332 320 294 281 277 274 271 265 254 249 247 241 241 244 242 247 253 251 241 241 251 266 280 299 282 284 286 289 294 298 291 274 272 269 271 268 273
314 311 314 317 318 321 319 314 310 299 284 272 269 269 266 260 248 242 242 241 244 244 248 247 240 247 254 265 275 284 289 296 293 296 299 304 305 295 270 265 263 261 267
317 316 314 313 313 311 308 304 298 293 286 281 269 264 258 256 254 249 248 248 247 245 243 245 244 245 254 260 265 279 284 288 292 298 307 308 310 309 292 266 266 256 256
306 306 308 308 305 302 300 297 290 285 285 276 268 263 255 248 249 245 242 246 247 244 241 245 248 249 252 258 264 272 274 278 284 294 304 310 310 309 299 282 272 263 264
300 304 302 299 300 296 293 291 287 283 280 271 271 270 263 260 260 253 249 241 240 241 245 249 252 251 252 256 261 267 271 273 275 286 294 306 311 313 298 283 279 272 264
300 302 299 293 291 293 288 281 284 285 277 272 269 260 258 264 261 257 253 251 251 252 251 249 248 250 252 255 259 260 269 268 271 277 288 299 312 313 299 278 278 273 270
297 294 301 286 287 291 277 276 279 272 272 274 270 265 260 260 260 260 259 258 261 263 261 258 255 255 252 251 252 258 264 264 266 274 284 293 308 311 298 275 269 273 275
303 295 301 286 286 286 282 277 274 274 273 270 270 271 266 264 264 266 266 267 266 265 265 264 263 263 261 261 260 260 257 261 259 270 281 290 302 304 289 267 267 267 258
291 299 300 285 289 283 281 279 274 272 275 275 271 268 266 263 263 263 264 265 266 265 266 266 266 264 262 261 263 262 257 254 253 267 277 286 297 294 278 261 267 265 236
289 301 296 295 280 289 284 275 273 271 272 269 267 268 265 263 263 262 261 259 256 255 260 260 259 257 259 261 256 250 245 245 249 264 272 284 290 275 266 255 260 209 201
288 304 292 290 282 294 285 277 275 272 270 269 264 262 262 263 265 262 258 255 255 252 250 251 253 247 248 255 257 246 242 245 252 261 276 282 269 266 252 244 229 204 209
303 291 302 287 288 291 289 283 276 274 269 268 267 264 262 258 256 256 258 259 256 256 253 251 250 249 254 248 254 253 249 250 252 260 266 256 261 253 243 239 199 204 199